Location: Unspecified
(0.0000°N, 0.0000°E)
Time: 06:29:55
(UTC+00:00)

Envisat - Pass Details

Date: 01 June 2019
Orbit: 764 x 766 km, 98.1° (Epoch: 15 September)

Event Time Altitude Azimuth Distance (km) Brightness Sun altitude
Rises 19:29:50 0° 187° (S) 3,229 6.1 -21.2°
Reaches altitude 10° 19:32:23 10° 198° (SSW) 2,300 5.4 -21.8°
Maximum altitude 19:36:46 30° 258° (WSW) 1,343 4.7 -22.8°
Drops below altitude 10° 19:41:10 10° 318° (NW) 2,291 6.4 -23.8°
Sets 19:43:42 0° 329° (NNW) 3,214 7.1 -24.4°
